Hovedside
METAR-TAF:

METAR-TAF

Lufthavner :

Vilhelmina, Sverige

breddegrad: 64-34-44N, lengdegrad: 016-50-00E, høyde over havet: 347 m

Gjeldene værobservasjon

Denne rapporten ble laget for 12 minutter siden, klokken 21:50 UTC
Vind 3 kt fra Øst
Temperatur 11°C
Luftfuktighet 100%
Trykk 1008 hPa
Sikt: 4800 m
lett regn

METAR: ESNV 182150Z AUTO 08003KT 4800 -RA VV015 11/11 Q1008

Tid: 00:02 (22:02 UTC)


TAF: fraværende

Værobservasjoner og værvarsel for over 4000 flyplasser (METAR- og TAF-rapporter).

Tilgjengelige stasjoner er representert av de røde og gule prikkene på kartet.

Hold musepekeren over prikken for å se navnet på stasjonen.

Klikk så for å se værobservasjoner og -varsler.

For å forandre kartet kan du klikke på den grønne knappen med svart kryss for å zoome inn, på den grønne knappen med strek for å zoome ut, eller på de grønne pilene for å se tilstøtende kart.


METAR-TAF: